Location: Oshawa
(43.9000°N, 78.8670°W)
Time: 21:24:33
(UTC-04:00)

Transit 2A Rocket - Visible Passes

Search period start: 01 May 2016 00:00
Search period end: 11 May 2016 00:00
Orbit: 586 x 918 km, 66.7° (Epoch: 30 April)

Date Brightness Start Highest point End Pass type
(mag) Time Alt. Az. Time Alt. Az. Time Alt. Az.
01 May 5.4 02:50:44 49° ESE 02:50:44 49° ESE 02:55:42 10° NE visible
01 May 6.3 04:30:39 17° W 04:33:30 28° NW 04:38:10 10° NNE visible
02 May 6.4 02:09:28 27° E 02:09:28 27° E 02:13:00 10° NE visible
02 May 5.7 03:49:22 33° W 03:50:55 42° NW 03:56:06 10° NNE visible
02 May 7.3 05:33:28 10° NW 05:35:11 11° NNW 05:36:57 10° N visible
03 May 7.2 01:28:08 14° E 01:28:08 14° E 01:29:45 10° ENE visible
03 May 4.9 03:08:02 65° W 03:08:28 69° NW 03:13:54 10° NNE visible
03 May 7.1 04:49:10 10° WNW 04:52:16 16° NNW 04:55:31 10° N visible
04 May 5.1 02:26:41 66° ENE 02:26:41 66° ENE 02:31:34 10° NE visible
04 May 6.8 04:06:35 14° W 04:09:28 22° NW 04:13:41 10° N visible
05 May 6.1 01:45:17 35° ENE 01:45:17 35° ENE 01:49:02 10° NE visible
05 May 6.2 03:25:11 26° WNW 03:26:47 32° NW 03:31:41 10° NNE visible
06 May 6.8 01:03:51 20° ENE 01:03:51 20° ENE 01:06:12 10° NE visible
06 May 5.4 02:43:45 47° WNW 02:44:15 49° NW 02:49:34 10° NNE visible
06 May 7.4 04:26:02 10° NW 04:28:22 13° NNW 04:30:46 10° N visible
07 May 7.4 00:22:23 11° ENE 00:22:23 11° ENE 00:22:40 10° ENE visible
07 May 5.1 02:02:17 73° N 02:02:17 73° N 02:07:19 10° NNE visible
07 May 7.2 03:42:10 10° WNW 03:45:29 17° NW 03:49:08 10° N visible
08 May 5.6 01:20:46 48° ENE 01:20:46 48° ENE 01:24:56 10° NE visible
08 May 6.7 03:00:39 19° WNW 03:02:42 25° NW 03:07:14 10° NNE visible
09 May 6.4 00:39:13 28° ENE 00:39:13 28° ENE 00:42:20 10° NE visible
09 May 6.0 02:19:06 33° WNW 02:20:05 36° NW 02:25:11 10° NNE visible
09 May 7.7 04:03:26 10° NW 04:04:31 11° NNW 04:05:37 10° NNW visible
09 May 6.9 23:57:36 16° ENE 23:57:36 16° ENE 23:59:22 10° ENE visible
10 May 5.3 01:37:29 57° WNW 01:37:35 57° NW 01:43:01 10° NNE visible
10 May 7.4 03:18:45 10° WNW 03:21:33 14° NNW 03:24:29 10° N visible
